Regional Weather Roundup
Issued by NWS

Home | Current Version | Previous Version | Graphics & Text | Print | Product List | Glossary On
Versions: 1 2 3 4 5 6 7 8 9 10 11 12 13 14 15 16 17 18 19 20 21 22 23 24 25 26 27 28 29 30 31 32 33 34 35 36 37 38 39 40 41 42 43 44 45 46 47 48 49 50
000
ASUS45 KCYS 252310
RWRWY

WYOMING REGIONAL WEATHER ROUNDUP
NATIONAL WEATHER SERVICE CHEYENNE WY
400 PM MST SUN JAN 25 2015

NOTE:  "FAIR" INDICATES FEW OR NO CLOUDS BELOW 12,000 FEET
WITH NO SIGNIFICANT WEATHER AND/OR OBSTRUCTIONS TO VISIBILITY.

WYZ001-260000-
YELLOWSTONE NATIONAL PARK

CITY           SKY/WX    TMP DP  RH WIND       PRES   REMARKS
LK YELLOWSTONE   N/A     32  26  78 CALM      30.42R
W YELLOWSTONE  NOT AVBL

$$
WYZ002>013-054>058-071-098>099-260000-
NORTHERN WYOMING

CITY           SKY/WX    TMP DP  RH WIND       PRES   REMARKS
JACKSON        SUNNY     34  28  80 N12       30.39R WCI  25
CODY           FAIR      55  25  30 W15G24    30.11S
GREYBULL       FAIR      36  27  69 W3        30.14R
WORLAND        FAIR      32  25  75 CALM      30.13R
SHERIDAN       FAIR      55  32  41 N3        30.01S
BUFFALO        FAIR      54  33  45 CALM      30.05R
GILLETTE       FAIR      51  33  50 W13       30.02R
HULETT           N/A    N/A N/A N/A MISG        N/A
NEWCASTLE      FAIR      45  32  61 N3        30.03R

$$
WYZ014>020-022>026-101>103-260000-
CENTRAL WYOMING

CITY           SKY/WX    TMP DP  RH WIND       PRES   REMARKS
BIG PINEY      FAIR      43  28  55 N13       30.33S
PINEDALE       FAIR      37  28  70 W22G28    30.32R WCI  27
DUBOIS         FAIR      43  25  49 NW20      30.28R
LANDER         FAIR      46  28  49 CALM      30.15S
RIVERTON       FAIR      43  28  55 CALM      30.17R
CASPER         FAIR      46  29  51 SW18G29   30.11S
DOUGLAS        FAIR      52  28  39 NW20      30.09R

$$
WYZ021-027>030-104>119-260000-
SOUTHERN WYOMING

CITY           SKY/WX    TMP DP  RH WIND       PRES   REMARKS
EVANSTON       FAIR      46  31  55 SW6       30.41R
KEMMERER       FAIR      39  32  75 NW9G16    30.42S WCI  33
FORT BRIDGER   FAIR      49  32  52 W15       30.41R
ROCK SPRINGS   FAIR      46  29  51 W18       30.31S
DIXON          FAIR      42  30  63 W3        30.36S
RAWLINS        FAIR      42  29  59 W23G32    30.26R
SARATOGA       FAIR      43  28  56 W13G23    30.30R
LARAMIE        FAIR      45  26  47 W10       30.19R
CHEYENNE       FAIR      49  27  42 NW18G29   30.13R
TORRINGTON     FAIR      55  30  38 W17G24    30.05R
PINE BLUFFS    FAIR      50  30  46 NW20G29   30.12R

$$



USA.gov is the U.S. government's official web portal to all federal, state and local government web resources and services.